Flag for U.S.A. Weather past 2 weeks in Helena, Montana, U.S.A.

Now
66 °F

Clear.


Feels Like: 66 °F
Forecast: 59 / 90 °F
Wind: 7 mph from Southwest

Location: Helena Regional Airport

Current Time: Jul 30, 2014 at 3:11:08 AM

Latest Report: Jul 30, 2014 at 1:53 AM


Visibility: 10 mi

Pressure: 30.12 "Hg

Humidity: 49%

Dew point: 46 °F

Location of HelenaLocation

Historic Weather in Helena — Graph

°F

Helena temperature yesterday

Maximum temperature yesterday: 93 °F (at 3:53 PM)
Minimum temperature yesterday: 63 °F (at 5:53 AM)
Average temperature yesterday: 76 °F

Past Weeks' High & Low Weather Summary

 TemperatureHumidityPressure
High94 °F (Jul 17, 4:53 PM)93% (Jul 16, 12:53 AM)30.27 "Hg (Jul 16, 12:53 AM)
Low52 °F (Jul 27, 5:53 AM)11% (Jul 26, 1:53 PM)29.68 "Hg (Jul 17, 7:53 PM)
Average72 °F43%29.99 "Hg
* Reported Jul 15 1:01 AM — Jul 30 1:53 AM, Helena, Weather by CustomWeather, © 2014

Note: Actual official high and low records may vary slightly from our data, if they occured in-between our weather recording intervals... More about our weather records

Advertising

Helena weather history for previous 24 hours

 ConditionsComfort  
Time TempWeatherWind HumidityBarometerVisibility
1:53 AM
Jul 30
66 °FClear.7 mph49%30.12 "Hg10 mi
12:53 AM69 °FClear.No wind44%30.12 "Hg10 mi
11:53 PM
Jul 29
70 °FClear.No wind44%30.12 "Hg10 mi
10:53 PM73 °FClear.No wind40%30.09 "Hg10 mi
9:53 PM74 °FSunny.3 mph40%30.10 "Hg10 mi
8:53 PM80 °FSunny.No wind31%30.07 "Hg10 mi
7:53 PM79 °FScattered clouds.6 mph39%30.08 "Hg10 mi
6:53 PM84 °FMore clouds than sun.7 mph25%30.06 "Hg10 mi
5:53 PM86 °FOvercast.10 mph22%30.08 "Hg10 mi
4:53 PM90 °FScattered clouds.8 mph18%30.05 "Hg10 mi
3:53 PM93 °FSunny.6 mph14%30.05 "Hg10 mi
2:53 PM90 °FSunny.No wind21%30.07 "Hg10 mi
1:53 PM89 °FSunny.3 mph21%30.08 "Hg10 mi
12:53 PM86 °FSunny.No wind23%30.11 "Hg10 mi
11:53 AM82 °FSunny.3 mph27%30.13 "Hg10 mi
10:53 AM81 °FSunny.3 mph27%30.14 "Hg10 mi
9:53 AM73 °FPassing clouds.5 mph38%30.16 "Hg10 mi
8:53 AM69 °FSunny.No wind44%30.16 "Hg10 mi
7:53 AM65 °FSunny.No wind52%30.16 "Hg10 mi
6:53 AM65 °FClear.No wind45%30.14 "Hg10 mi
5:53 AM63 °FClear.3 mph54%30.12 "Hg10 mi
4:53 AM65 °FClear.No wind45%30.13 "Hg10 mi
3:53 AM65 °FClear.No wind45%30.12 "Hg10 mi
Weather by CustomWeather, © 2014

See weather overviewHow to use our weather pages